TimeEDT,TemperatureF,Dew PointF,Humidity,Sea Level PressureIn,VisibilityMPH,Wind Direction,Wind SpeedMPH,Gust SpeedMPH,PrecipitationIn,Events,Conditions,WindDirDegrees,DateUTC
12:15 AM,71.6,71.6,100,29.98,10.0,Calm,Calm,-,N/A,,Clear,0,2013-07-13 04:15:00
12:35 AM,71.6,69.8,94,29.97,10.0,WSW,3.5,-,N/A,,Clear,240,2013-07-13 04:35:00
12:55 AM,71.6,69.8,94,29.96,10.0,Calm,Calm,-,N/A,,Clear,0,2013-07-13 04:55:00
1:15 AM,71.6,69.8,94,29.96,10.0,SW,4.6,-,N/A,,Clear,220,2013-07-13 05:15:00
1:35 AM,71.6,69.8,94,29.96,10.0,Calm,Calm,-,N/A,,Clear,0,2013-07-13 05:35:00
1:55 AM,71.6,69.8,94,29.95,10.0,Calm,Calm,-,N/A,,Clear,0,2013-07-13 05:55:00
2:15 AM,71.6,69.8,94,29.95,10.0,Calm,Calm,-,N/A,,Clear,0,2013-07-13 06:15:00
2:35 AM,71.6,69.8,94,29.94,10.0,Calm,Calm,-,N/A,,Clear,0,2013-07-13 06:35:00
2:55 AM,71.6,69.8,94,29.94,10.0,Calm,Calm,-,N/A,,Clear,0,2013-07-13 06:55:00
3:15 AM,71.6,69.8,94,29.94,10.0,Calm,Calm,-,N/A,,Clear,0,2013-07-13 07:15:00
3:35 AM,71.6,69.8,94,29.95,10.0,Calm,Calm,-,N/A,,Clear,0,2013-07-13 07:35:00
3:55 AM,69.8,69.8,100,29.95,10.0,Calm,Calm,-,N/A,,Clear,0,2013-07-13 07:55:00
4:15 AM,69.8,69.8,100,29.94,10.0,Calm,Calm,-,N/A,,Clear,0,2013-07-13 08:15:00
4:35 AM,69.8,69.8,100,29.94,10.0,Calm,Calm,-,N/A,,Clear,0,2013-07-13 08:35:00
4:55 AM,69.8,69.8,100,29.95,10.0,Calm,Calm,-,N/A,,Clear,0,2013-07-13 08:55:00
5:15 AM,69.8,69.8,100,29.94,10.0,Calm,Calm,-,N/A,,Scattered Clouds,0,2013-07-13 09:15:00
5:35 AM,69.8,69.8,100,29.94,10.0,Calm,Calm,-,N/A,,Scattered Clouds,0,2013-07-13 09:35:00
5:55 AM,69.8,69.8,100,29.94,10.0,Calm,Calm,-,N/A,,Clear,0,2013-07-13 09:55:00
6:15 AM,69.8,69.8,100,29.95,10.0,Calm,Calm,-,N/A,,Clear,0,2013-07-13 10:15:00
6:35 AM,69.8,69.8,100,29.95,10.0,ENE,3.5,-,N/A,,Clear,60,2013-07-13 10:35:00
6:55 AM,69.8,69.8,100,29.95,10.0,Calm,Calm,-,N/A,,Clear,0,2013-07-13 10:55:00
7:15 AM,69.8,69.8,100,29.96,7.0,Calm,Calm,-,N/A,,Clear,0,2013-07-13 11:15:00
7:35 AM,71.6,71.6,100,29.96,10.0,Calm,Calm,-,N/A,,Clear,0,2013-07-13 11:35:00
7:55 AM,71.6,71.6,100,29.96,10.0,Calm,Calm,-,N/A,,Clear,0,2013-07-13 11:55:00
8:15 AM,73.4,73.4,100,29.96,10.0,Calm,Calm,-,N/A,,Clear,0,2013-07-13 12:15:00
8:35 AM,75.2,73.4,94,29.97,10.0,Calm,Calm,-,N/A,,Clear,0,2013-07-13 12:35:00
8:55 AM,78.8,75.2,89,29.97,10.0,Calm,Calm,-,N/A,,Clear,0,2013-07-13 12:55:00
9:15 AM,78.8,75.2,89,29.98,10.0,SE,3.5,-,N/A,,Scattered Clouds,140,2013-07-13 13:15:00
9:35 AM,80.6,75.2,84,29.99,10.0,SSE,4.6,-,N/A,,Mostly Cloudy,160,2013-07-13 13:35:00
9:55 AM,78.8,73.4,83,29.99,10.0,SW,5.8,-,N/A,,Mostly Cloudy,230,2013-07-13 13:55:00
10:15 AM,78.8,73.4,83,29.99,10.0,SW,4.6,-,N/A,,Overcast,220,2013-07-13 14:15:00
10:35 AM,78.8,73.4,83,29.99,7.0,Calm,Calm,-,N/A,Rain,Rain,0,2013-07-13 14:35:00
10:55 AM,80.6,75.2,84,29.99,10.0,South,5.8,-,N/A,Thunderstorm,Scattered Clouds,190,2013-07-13 14:55:00
11:15 AM,82.4,75.2,79,29.99,10.0,South,6.9,-,N/A,,Mostly Cloudy,180,2013-07-13 15:15:00
11:35 AM,84.2,73.4,70,29.99,10.0,SSE,8.1,-,N/A,,Scattered Clouds,160,2013-07-13 15:35:00
11:55 AM,82.4,73.4,74,29.99,10.0,SE,9.2,-,N/A,,Scattered Clouds,140,2013-07-13 15:55:00
12:15 PM,86.0,73.4,66,29.99,10.0,South,8.1,-,N/A,Thunderstorm,Clear,180,2013-07-13 16:15:00
12:35 PM,84.2,73.4,70,29.99,10.0,South,8.1,-,N/A,,Clear,170,2013-07-13 16:35:00
12:55 PM,84.2,73.4,70,29.98,10.0,SSE,9.2,-,N/A,Thunderstorm,Clear,160,2013-07-13 16:55:00
1:15 PM,86.0,71.6,62,29.97,10.0,South,6.9,-,N/A,Thunderstorm,Clear,170,2013-07-13 17:15:00
1:35 PM,86.0,73.4,66,29.99,10.0,SSE,8.1,-,N/A,Thunderstorm,Clear,160,2013-07-13 17:35:00
1:55 PM,86.0,71.6,62,29.98,10.0,South,12.7,16.1,N/A,Thunderstorm,Thunderstorm,190,2013-07-13 17:55:00
2:15 PM,78.8,69.8,74,30.00,10.0,SW,18.4,25.3,N/A,Thunderstorm,Thunderstorm,220,2013-07-13 18:15:00
2:35 PM,73.4,71.6,94,30.00,5.0,SSW,11.5,18.4,0.03,Rain-Thunderstorm,Light Thunderstorms and Rain,210,2013-07-13 18:35:00
2:55 PM,73.4,71.6,94,30.00,10.0,South,6.9,-,0.03,Thunderstorm,Mostly Cloudy,170,2013-07-13 18:55:00
3:15 PM,73.4,71.6,94,30.02,10.0,Calm,Calm,-,N/A,Rain-Thunderstorm,Light Thunderstorms and Rain,0,2013-07-13 19:15:00
3:35 PM,75.2,71.6,89,30.02,10.0,WNW,3.5,-,0.01,Rain-Thunderstorm,Light Thunderstorms and Rain,300,2013-07-13 19:35:00
3:55 PM,75.2,71.6,89,30.02,7.0,Calm,Calm,-,0.04,Rain,Rain,0,2013-07-13 19:55:00
4:15 PM,75.2,71.6,89,30.01,10.0,Calm,Calm,-,0.02,Rain-Thunderstorm,Light Thunderstorms and Rain,0,2013-07-13 20:15:00
4:35 PM,73.4,71.6,94,30.00,10.0,SE,3.5,-,0.02,,Scattered Clouds,130,2013-07-13 20:35:00
4:55 PM,73.4,71.6,94,30.00,10.0,SSE,3.5,-,0.02,,Clear,160,2013-07-13 20:55:00
5:15 PM,75.2,71.6,89,30.00,10.0,South,5.8,-,N/A,,Clear,170,2013-07-13 21:15:00
5:35 PM,73.4,71.6,94,29.99,7.0,Calm,Calm,-,0.03,Rain,Rain,0,2013-07-13 21:35:00
5:55 PM,75.2,73.4,94,29.98,10.0,Calm,Calm,-,0.04,Rain,Light Rain,0,2013-07-13 21:55:00
6:15 PM,73.4,73.4,100,29.97,10.0,South,4.6,-,0.02,Rain,Light Rain,170,2013-07-13 22:15:00
6:35 PM,73.4,73.4,100,29.96,10.0,Calm,Calm,-,0.03,Rain,Light Rain,0,2013-07-13 22:35:00
6:55 PM,73.4,73.4,100,29.96,10.0,Calm,Calm,-,0.03,Rain,Light Rain,0,2013-07-13 22:55:00
7:15 PM,73.4,73.4,100,29.98,10.0,SSE,3.5,-,N/A,Rain,Light Rain,150,2013-07-13 23:15:00
7:35 PM,73.4,73.4,100,29.98,10.0,SE,3.5,-,N/A,,Light Drizzle,140,2013-07-13 23:35:00
7:55 PM,73.4,73.4,100,29.98,10.0,Calm,Calm,-,N/A,,Scattered Clouds,0,2013-07-13 23:55:00
8:15 PM,73.4,71.6,94,29.99,10.0,East,4.6,-,N/A,,Scattered Clouds,100,2013-07-14 00:15:00
8:35 PM,73.4,71.6,94,30.00,10.0,ESE,5.8,-,N/A,Rain,Light Rain,110,2013-07-14 00:35:00
8:55 PM,71.6,71.6,100,30.01,10.0,SE,4.6,-,N/A,,Light Drizzle,130,2013-07-14 00:55:00
9:15 PM,71.6,71.6,100,30.02,10.0,SE,3.5,-,N/A,Rain,Light Rain,130,2013-07-14 01:15:00
9:35 PM,71.6,71.6,100,30.02,10.0,ESE,3.5,-,N/A,,Drizzle,120,2013-07-14 01:35:00
9:55 PM,73.4,71.6,94,30.01,10.0,SE,4.6,-,N/A,,Light Drizzle,140,2013-07-14 01:55:00
10:15 PM,73.4,71.6,94,30.02,10.0,South,5.8,-,N/A,,Clear,170,2013-07-14 02:15:00
10:35 PM,73.4,71.6,94,30.02,10.0,South,8.1,-,N/A,,Clear,170,2013-07-14 02:35:00
10:55 PM,73.4,71.6,94,30.02,10.0,South,4.6,-,N/A,,Clear,190,2013-07-14 02:55:00
11:15 PM,73.4,71.6,94,30.02,10.0,South,4.6,-,N/A,,Clear,180,2013-07-14 03:15:00
11:35 PM,73.4,71.6,94,30.03,10.0,South,5.8,-,N/A,,Clear,190,2013-07-14 03:35:00
11:55 PM,73.4,69.8,88,30.02,10.0,South,3.5,-,N/A,,Clear,180,2013-07-14 03:55:00